Location: Étang Rond
(42.7927°N, 1.0661°E)
Time: 13:25:11
(UTC+00:00)

SL-08 RB Rocket - Visible Passes

Search period start: 14 February 2026 00:00
Search period end: 24 February 2026 00:00
Orbit: 633 x 665 km, 97.8° (Epoch: 13 February)

Date Brightness Start Highest point End Pass type
(mag) Time Alt. Az. Time Alt. Az. Time Alt. Az.
14 Feb 5.7 04:28:45 10° N 04:30:05 19° N 04:30:05 19° N visible
15 Feb 6.7 03:18:47 10° NE 03:19:02 11° NE 03:19:02 11° NE visible
15 Feb 5.5 04:55:22 10° N 04:56:49 18° NNW 04:56:49 18° NNW visible
16 Feb 6.1 03:44:38 10° NNE 03:45:46 17° NNE 03:45:46 17° NNE visible
16 Feb 5.6 05:22:23 10° NNW 05:23:33 14° NW 05:23:33 14° NW visible
17 Feb 5.6 04:10:48 10° NNE 04:12:30 23° N 04:12:30 23° N visible
18 Feb 5.2 04:37:14 10° N 04:39:13 24° NNW 04:39:13 24° NNW visible
19 Feb 6.3 03:26:59 10° NNE 03:28:10 17° NE 03:28:10 17° NE visible
19 Feb 5.3 05:03:56 10° NNW 05:05:57 20° NNW 05:05:57 20° NNW visible
20 Feb 5.6 03:52:57 10° NNE 03:54:54 25° NNE 03:54:54 25° NNE visible
20 Feb 5.5 05:31:09 10° NNW 05:32:40 14° NW 05:32:40 14° NW visible
21 Feb 5.0 04:19:12 10° N 04:21:37 31° N 04:21:37 31° N visible
22 Feb 6.5 03:09:32 10° NE 03:10:33 15° NE 03:10:33 15° NE visible
22 Feb 4.9 04:45:42 10° N 04:48:20 28° NNW 04:48:20 28° NNW visible
23 Feb 5.8 03:35:12 10° NNE 03:37:16 24° NE 03:37:16 24° NE visible
23 Feb 5.1 05:12:32 10° NNW 05:15:03 20° NW 05:15:03 20° NW visible
